📊 Raw Sensor Data

Showing records 32126 to 32150 of 84,672 total

ID Distance (ft) Battery V Battery A Int Temp (°F) Int Humid (%) Ext Temp (°F) Solar V RSSI SNR Time Stamp
52559 15.2 4.04 0 104 46 91 5.10 -74 8 09/20/2025 04:45 PM
52558 15.3 4.15 0 106 45 91 5.10 -74 8 09/20/2025 04:30 PM
52557 15.2 4.04 0 106 45 90 5.10 -75 8 09/20/2025 04:15 PM
52556 15.2 4.04 0 106 44 93 5.10 -76 8 09/20/2025 04:00 PM
52555 15.3 4.04 0 106 44 90 5.10 -76 8 09/20/2025 03:45 PM
52554 15.3 4.04 0 107 42 92 5.10 -76 8 09/20/2025 03:30 PM
52553 15.3 4.14 0 105 42 91 5.10 -75 8 09/20/2025 03:15 PM
52552 15.3 4.04 0 105 42 87 5.20 -73 8 09/20/2025 03:00 PM
52551 15.3 4.05 0 103 42 86 5.10 -77 9 09/20/2025 02:45 PM
52550 15.3 4.04 0 103 41 88 5.10 -75 8 09/20/2025 02:30 PM
52549 15.3 4.04 0 103 41 89 5.10 -77 8 09/20/2025 02:15 PM
52548 15.3 4.06 0 101 41 89 5.10 -75 8 09/20/2025 02:00 PM
52547 15.2 4.03 0 101 41 89 5.20 -76 8 09/20/2025 01:45 PM
52546 15.3 4.03 0 99 41 88 5.10 -76 8 09/20/2025 01:30 PM
52545 14.0 4.04 0 97 42 87 5.10 -74 8 09/20/2025 01:15 PM
52544 15.3 4.14 0 97 41 83 5.10 -75 8 09/20/2025 01:00 PM
52543 15.3 4.07 0 97 41 86 5.20 -74 8 09/20/2025 12:45 PM
52542 15.3 4.03 0 95 41 85 5.10 -74 8 09/20/2025 12:30 PM
52541 15.2 4.03 0 94 41 87 5.10 -77 7 09/20/2025 12:15 PM
52540 15.2 4.03 0 92 41 83 5.10 -73 7 09/20/2025 12:00 PM
52539 15.3 4.11 0 90 41 83 5.10 -75 8 09/20/2025 11:45 AM
52538 15.3 4.03 0 89 41 86 5.10 -73 7 09/20/2025 11:30 AM
52537 15.3 4.03 0 87 41 84 5.10 -75 8 09/20/2025 11:15 AM
52536 -- 4.03 0 84 41 80 5.10 -73 9 09/20/2025 11:00 AM
52535 14.1 4.03 0 82 41 80 5.10 -73 7 09/20/2025 10:45 AM